TimeEDT,TemperatureF,Dew PointF,Humidity,Sea Level PressureIn,VisibilityMPH,Wind Direction,Wind SpeedMPH,Gust SpeedMPH,PrecipitationIn,Events,Conditions,WindDirDegrees,DateUTC
12:37 AM,22.8,21.4,94,29.98,10.0,Calm,Calm,-,N/A,,Clear,0,2013-03-23 04:37:00
12:56 AM,23.7,22.1,94,29.99,10.0,NW,5.8,-,N/A,,Clear,320,2013-03-23 04:56:00
1:17 AM,23.5,21.9,94,29.99,10.0,NNW,4.6,-,N/A,,Clear,330,2013-03-23 05:17:00
1:36 AM,23.7,22.3,94,29.98,10.0,Calm,Calm,-,N/A,,Clear,0,2013-03-23 05:36:00
1:56 AM,23.9,22.1,93,29.99,10.0,Calm,Calm,-,N/A,,Clear,0,2013-03-23 05:56:00
2:17 AM,22.3,21.0,95,30.00,10.0,Calm,Calm,-,N/A,,Clear,0,2013-03-23 06:17:00
2:36 AM,22.1,21.4,97,29.99,10.0,Calm,Calm,-,N/A,,Clear,0,2013-03-23 06:36:00
2:57 AM,20.5,20.1,99,29.99,10.0,NW,3.5,-,N/A,,Clear,320,2013-03-23 06:57:00
3:17 AM,19.4,19.0,98,29.99,10.0,Calm,Calm,-,N/A,,Clear,0,2013-03-23 07:17:00
3:36 AM,18.9,18.7,99,29.99,10.0,Calm,Calm,-,N/A,,Clear,0,2013-03-23 07:36:00
3:57 AM,17.4,17.1,98,29.99,10.0,Calm,Calm,-,N/A,,Clear,0,2013-03-23 07:57:00
4:17 AM,17.1,16.7,98,29.99,10.0,Calm,Calm,-,N/A,,Clear,0,2013-03-23 08:17:00
4:36 AM,16.9,16.3,98,29.99,10.0,Calm,Calm,-,N/A,,Clear,0,2013-03-23 08:36:00
4:57 AM,15.4,14.9,98,29.99,10.0,Calm,Calm,-,N/A,,Clear,0,2013-03-23 08:57:00
5:16 AM,15.4,14.7,97,29.99,10.0,Calm,Calm,-,N/A,,Clear,0,2013-03-23 09:16:00
5:36 AM,15.3,14.5,97,30.00,10.0,Calm,Calm,-,N/A,,Clear,0,2013-03-23 09:36:00
5:57 AM,13.6,12.9,97,30.01,10.0,SW,3.5,-,N/A,,Clear,230,2013-03-23 09:57:00
6:16 AM,12.4,11.3,95,30.01,10.0,Calm,Calm,-,N/A,,Clear,0,2013-03-23 10:16:00
6:36 AM,13.3,12.2,95,30.02,10.0,Calm,Calm,-,N/A,,Clear,0,2013-03-23 10:36:00
6:57 AM,13.5,12.7,97,30.03,10.0,Calm,Calm,-,N/A,,Clear,0,2013-03-23 10:57:00
7:16 AM,13.8,12.7,95,30.03,10.0,Calm,Calm,-,N/A,,Clear,0,2013-03-23 11:16:00
7:37 AM,12.7,11.5,95,30.04,10.0,Calm,Calm,-,N/A,,Clear,0,2013-03-23 11:37:00
7:57 AM,12.9,11.8,95,30.04,10.0,Calm,Calm,-,N/A,,Clear,0,2013-03-23 11:57:00
8:16 AM,13.3,12.6,97,30.05,10.0,Calm,Calm,-,N/A,,Clear,0,2013-03-23 12:16:00
8:37 AM,16.9,16.5,98,30.05,10.0,Calm,Calm,-,N/A,,Clear,0,2013-03-23 12:37:00
8:57 AM,19.6,19.0,98,30.05,10.0,Calm,Calm,-,N/A,,Clear,0,2013-03-23 12:57:00
9:16 AM,20.5,19.9,98,30.05,10.0,North,3.5,-,N/A,,Clear,360,2013-03-23 13:16:00
9:37 AM,21.6,21.0,98,30.05,10.0,North,3.5,-,N/A,,Clear,10,2013-03-23 13:37:00
9:56 AM,23.0,22.6,99,30.05,10.0,North,4.6,-,N/A,,Clear,350,2013-03-23 13:56:00
10:16 AM,24.8,21.9,89,30.06,10.0,North,5.8,-,N/A,,Clear,360,2013-03-23 14:16:00
10:37 AM,27.0,20.8,78,30.06,10.0,North,3.5,-,N/A,,Clear,350,2013-03-23 14:37:00
10:56 AM,28.8,21.0,73,30.06,10.0,NW,4.6,-,N/A,,Clear,310,2013-03-23 14:56:00
11:17 AM,29.7,21.2,71,30.06,10.0,NW,3.5,-,N/A,,Clear,310,2013-03-23 15:17:00
11:36 AM,31.1,21.2,67,30.06,10.0,NW,4.6,-,N/A,,Clear,320,2013-03-23 15:36:00
11:56 AM,31.8,21.4,65,30.06,10.0,NW,3.5,-,N/A,,Clear,310,2013-03-23 15:56:00
12:17 PM,32.0,21.9,66,30.05,10.0,West,4.6,-,N/A,,Clear,280,2013-03-23 16:17:00
12:36 PM,32.4,22.3,66,30.05,10.0,West,6.9,-,N/A,,Clear,270,2013-03-23 16:36:00
12:57 PM,33.1,22.1,64,30.05,10.0,WNW,3.5,-,N/A,,Clear,290,2013-03-23 16:57:00
1:17 PM,34.0,22.1,62,30.05,10.0,WNW,4.6,-,N/A,,Clear,300,2013-03-23 17:17:00
1:36 PM,34.2,22.1,61,30.05,10.0,WNW,6.9,-,N/A,,Clear,300,2013-03-23 17:36:00
2:17 PM,36.1,22.3,57,30.05,10.0,West,8.1,-,N/A,,Clear,270,2013-03-23 18:17:00
2:36 PM,36.7,22.3,56,30.04,10.0,WNW,8.1,-,N/A,,Clear,290,2013-03-23 18:36:00
2:57 PM,37.0,22.3,55,30.03,10.0,West,8.1,-,N/A,,Clear,280,2013-03-23 18:57:00
3:16 PM,37.4,20.8,51,30.04,10.0,West,10.4,16.1,N/A,,Clear,280,2013-03-23 19:16:00
3:36 PM,37.8,20.3,49,30.03,10.0,West,6.9,-,N/A,,Clear,280,2013-03-23 19:36:00
3:57 PM,37.4,20.5,51,30.03,10.0,WNW,10.4,-,N/A,,Clear,300,2013-03-23 19:57:00
4:16 PM,36.9,21.0,53,30.03,10.0,WNW,11.5,19.6,N/A,,Clear,290,2013-03-23 20:16:00
4:36 PM,36.5,21.6,55,30.04,10.0,WNW,6.9,19.6,N/A,,Clear,290,2013-03-23 20:36:00
4:57 PM,36.1,21.7,56,30.04,10.0,WNW,11.5,18.4,N/A,,Clear,300,2013-03-23 20:57:00
5:16 PM,35.8,22.3,58,30.04,10.0,NW,8.1,18.4,N/A,,Clear,310,2013-03-23 21:16:00
5:37 PM,35.6,23.0,60,30.04,10.0,WNW,9.2,16.1,N/A,,Clear,300,2013-03-23 21:37:00
5:57 PM,34.9,22.1,60,30.04,10.0,WNW,9.2,18.4,N/A,,Clear,300,2013-03-23 21:57:00
6:16 PM,34.9,22.3,60,30.04,10.0,WNW,5.8,16.1,N/A,,Clear,290,2013-03-23 22:16:00
6:37 PM,34.2,21.9,61,30.04,10.0,NW,6.9,-,N/A,,Clear,310,2013-03-23 22:37:00
6:57 PM,33.4,22.1,63,30.04,10.0,NW,5.8,-,N/A,,Clear,310,2013-03-23 22:57:00
7:16 PM,32.5,22.8,67,30.05,10.0,NW,4.6,-,N/A,,Clear,310,2013-03-23 23:16:00
7:37 PM,31.8,22.1,67,30.05,10.0,NW,6.9,-,N/A,,Clear,320,2013-03-23 23:37:00
7:56 PM,30.7,22.1,70,30.05,10.0,NW,5.8,-,N/A,,Clear,320,2013-03-23 23:56:00
8:16 PM,29.8,22.1,73,30.06,10.0,NW,4.6,-,N/A,,Clear,310,2013-03-24 00:16:00
8:37 PM,29.5,21.6,72,30.06,10.0,NW,3.5,-,N/A,,Clear,310,2013-03-24 00:37:00
8:56 PM,28.8,21.4,74,30.07,10.0,WNW,5.8,-,N/A,,Clear,290,2013-03-24 00:56:00
9:17 PM,28.2,21.6,76,30.07,10.0,WNW,5.8,-,N/A,,Clear,300,2013-03-24 01:17:00
9:37 PM,28.0,21.7,77,30.07,10.0,WNW,5.8,-,N/A,,Scattered Clouds,300,2013-03-24 01:37:00
9:56 PM,27.5,21.9,80,30.07,10.0,WNW,4.6,-,N/A,,Scattered Clouds,290,2013-03-24 01:56:00
10:17 PM,27.3,22.3,81,30.07,10.0,WNW,6.9,-,N/A,,Mostly Cloudy,290,2013-03-24 02:17:00
10:37 PM,27.3,22.8,83,30.07,10.0,WNW,5.8,-,N/A,,Overcast,300,2013-03-24 02:37:00
10:56 PM,27.3,23.0,84,30.07,10.0,WNW,3.5,-,N/A,,Overcast,300,2013-03-24 02:56:00
11:17 PM,27.5,23.2,84,30.07,10.0,NW,3.5,-,N/A,,Overcast,310,2013-03-24 03:17:00
11:37 PM,27.5,23.4,84,30.07,10.0,WNW,3.5,-,N/A,,Overcast,300,2013-03-24 03:37:00
11:56 PM,27.3,23.2,84,30.07,10.0,Calm,Calm,-,N/A,,Overcast,0,2013-03-24 03:56:00